Regional Weather Roundup
Issued by NWS

Home | Current Version | Previous Version | Text Only | Print | Product List | Glossary On
Versions: 1 2 3 4 5 6 7 8 9 10 11 12 13 14 15 16 17 18 19 20 21 22 23 24 25 26 27 28 29 30 31 32 33 34 35 36 37 38 39 40 41 42 43 44 45 46 47 48 49 50
000
ASUS44 KFWD 280610
RWRTX
NORTH TEXAS HOURLY WEATHER ROUNDUP
NATIONAL WEATHER SERVICE FORT WORTH TX
100 AM CDT FRI AUG 28 2015

NOTE: "FAIR" INDICATES FEW OR NO CLOUDS BELOW 12,000 FEET WITH NO
SIGNIFICANT WEATHER AND/OR OBSTRUCTIONS TO VISIBILITY.

TXZ118-119-280700-
DALLAS/FORT WORTH METROPLEX

CITY           SKY/WX    TMP DP  RH WIND       PRES   REMARKS
DFW AIRPORT    FAIR      76  63  64 SE6       30.00R
6HR MIN TEMP:  76; 6HR MAX TEMP:  91;

DALLAS LOVE    MOCLDY    79  60  52 SE12      30.00S
6HR MIN TEMP:  79; 6HR MAX TEMP:  91;

FTW MEACHAM    FAIR      77  61  57 S7        30.00S
6HR MIN TEMP:  77; 6HR MAX TEMP:  94;

DAL-EXECUTIVE  FAIR      77  61  57 SE9       30.00F
6HR MIN TEMP:  76; 6HR MAX TEMP:  90;

FTW-ALLIANCE   FAIR      76  59  55 CALM      30.00S
6HR MIN TEMP:  74; 6HR MAX TEMP:  92;

FTW-NAS-JRB    FAIR      80  61  52 SE8       30.01S
6HR MIN TEMP:  80; 6HR MAX TEMP:  94;

FTW-SPINKS     FAIR      75  62  64 CALM      30.02S
6HR MIN TEMP:  74; 6HR MAX TEMP:  91;

ARLINGTON      FAIR      77  60  55 SE7       30.01R
6HR MIN TEMP:  77; 6HR MAX TEMP:  93;

GRAND PRAIRIE  FAIR      78  63  60 SE5       30.02S
6HR MIN TEMP:  77; 6HR MAX TEMP:  91;

ADDISON        FAIR      78  64  61 SE7       30.02S
MESQUITE       FAIR      73  63  70 SE5       30.01S
6HR MIN TEMP:  72; 6HR MAX TEMP:  88;

LANCASTER      FAIR      74  59  59 CALM      30.02S
6HR MIN TEMP:  74; 6HR MAX TEMP:  91;

$$

TXZ091>094-102>105-117-120-121-131>134-280700-
NORTH CENTRAL TEXAS

CITY           SKY/WX    TMP DP  RH WIND       PRES   REMARKS
SHRMAN/DENISON FAIR      77  65  67 SE9       30.02S
6HR MIN TEMP:  77; 6HR MAX TEMP:  91;

GAINESVILLE    FAIR      74  61  63 SE6       30.01F
6HR MIN TEMP:  74; 6HR MAX TEMP:  89;

BOWIE          FAIR      74  62  64 SE6       30.00S
6HR MIN TEMP:  74; 6HR MAX TEMP:  89;

BRIDGEPORT     FAIR      78  62  57 S9        30.01F
6HR MIN TEMP:  78; 6HR MAX TEMP:  92;

DECATUR        FAIR      76  59  56 SE8       30.00F
6HR MIN TEMP:  75; 6HR MAX TEMP:  91;

DENTON         FAIR      76  60  57 SE8       29.99F
6HR MIN TEMP:  74; 6HR MAX TEMP:  90;

MCKINNEY       FAIR      74  64  71 SE7       30.00F
6HR MIN TEMP:  74; 6HR MAX TEMP:  87;

GREENVILLE     FAIR      70  63  78 SE5       30.02S
ROCKWALL       FAIR      74  64  71 E10       30.00S
6HR MIN TEMP:  74; 6HR MAX TEMP:  88;

TERRELL        FAIR      73  65  75 SE3       30.02R
6HR MIN TEMP:  72; 6HR MAX TEMP:  88;

WAXAHACHIE     FAIR      74  62  66 SE3       30.03S
6HR MIN TEMP:  74; 6HR MAX TEMP:  89;

CLEBURNE         N/A     77  63  61 SE8       30.03S
GRANBURY       FAIR      77  63  60 E7        30.02S
6HR MIN TEMP:  77; 6HR MAX TEMP:  92;

$$

TXZ083>090-098>101-113>116-127>130-139>142-154-155-280700-
WESTERN NORTH TEXAS

CITY           SKY/WX    TMP DP  RH WIND       PRES   REMARKS
WICHITA FALLS  FAIR      79  62  56 S18       29.96S
6HR MIN TEMP:  77; 6HR MAX TEMP:  93;

WF-KICKAPOO    FAIR      79  63  57 SE13      29.98S
6HR MIN TEMP:  79; 6HR MAX TEMP:  95;

VERNON         FAIR      85  55  35 S16       29.95F
6HR MIN TEMP:  85; 6HR MAX TEMP: 101;

ABILENE        FAIR      79  60  52 SE13      30.01F
6HR MIN TEMP:  79; 6HR MAX TEMP:  93;

ABILENE-DYESS  FAIR      82  62  50 S13       29.99F
6HR MIN TEMP:  81; 6HR MAX TEMP:  94;

BRECKENRIDGE   FAIR      80  57  45 SE14      29.99S
6HR MIN TEMP:  80; 6HR MAX TEMP:  93;

GRAHAM         FAIR      80  60  51 SE9       29.98S
6HR MIN TEMP:  80; 6HR MAX TEMP:  94;

MINERAL WELLS  FAIR      74  62  66 SE9       29.99F
6HR MIN TEMP:  73; 6HR MAX TEMP:  90;

STEPHENVILLE   FAIR      74  60  60 S3        30.06S
6HR MIN TEMP:  74; 6HR MAX TEMP:  90;

COMANCHE       FAIR      73  60  63 SE7       30.03S
6HR MIN TEMP:  73; 6HR MAX TEMP:  92;

COLEMAN        FAIR      79  61  54 S8        30.03S
6HR MIN TEMP:  79; 6HR MAX TEMP:  93;

BRADY          CLEAR     81  61  50 SE6       30.04F
$$

TXZ143>147-156>162-174-175-280700-
CENTRAL TEXAS

CITY           SKY/WX    TMP DP  RH WIND       PRES   REMARKS
WACO           FAIR      79  59  50 SE10      30.01S
6HR MIN TEMP:  76; 6HR MAX TEMP:  93;

HILLSBORO      FAIR      75  58  54 SE8       30.01S
6HR MIN TEMP:  75; 6HR MAX TEMP:  90;

CORSICANA      FAIR      76  65  68 SE7       30.01F
6HR MIN TEMP:  73; 6HR MAX TEMP:  89;

MEXIA          FAIR      71  61  70 E8        30.00F
6HR MIN TEMP:  71; 6HR MAX TEMP:  89;

HEARNE         FAIR      73  64  72 CALM      30.02S
6HR MIN TEMP:  72; 6HR MAX TEMP:  91;

CAMERON        FAIR      74  64  71 CALM      30.01S
6HR MIN TEMP:  74; 6HR MAX TEMP:  91;

TEMPLE         FAIR      73  61  64 S7        30.04R
6HR MIN TEMP:  73; 6HR MAX TEMP:  91;

KILLEEN        CLEAR     74  60  61 S5        30.01F
6HR MIN TEMP:  74; 6HR MAX TEMP:  93;

KILLEEN-SKYLRK FAIR      77  59  53 S6        30.01F
6HR MIN TEMP:  75; 6HR MAX TEMP:  93;

FORT HOOD      FAIR      77  61  58 SE5       30.01S
6HR MIN TEMP:  76; 6HR MAX TEMP:  93;

GATESVILLE     FAIR      75  61  60 CALM      30.05R
HAMILTON       FAIR      76  59  55 SE9       30.04S
6HR MIN TEMP:  76; 6HR MAX TEMP:  94;

$$

TXZ095>097-106>112-122>126-135>138-148>153-164>167-280700-
EAST TEXAS

CITY           SKY/WX    TMP DP  RH WIND       PRES   REMARKS
PARIS          FAIR      70  61  73 SE7       30.03S
6HR MIN TEMP:  70; 6HR MAX TEMP:  86;

SULPHUR SPRNGS FAIR      74  64  71 SE5       30.04F
6HR MIN TEMP:  74; 6HR MAX TEMP:  85;

MOUNT PLEASANT FAIR      70  64  81 CALM      30.05S
6HR MIN TEMP:  70; 6HR MAX TEMP:  85;

MINEOLA        FAIR      70  68  94 CALM      30.03S
TYLER          FAIR      73  66  78 E3        30.01F
6HR MIN TEMP:  73; 6HR MAX TEMP:  85;

LONGVIEW       FAIR      73  66  78 E7        30.02S
6HR MIN TEMP:  71; 6HR MAX TEMP:  85;

MARSHALL       FAIR      73  67  81 CALM      30.05S
6HR MIN TEMP:  73; 6HR MAX TEMP:  83;

ATHENS         FAIR      68  64  88 CALM      30.00S
PALESTINE      FAIR      76  65  66 E7        30.02S
JACKSONVILLE   FAIR      75  63  66 E3        30.04F
HENDERSON      FAIR      68  67  97 CALM      30.04S
6HR MIN TEMP:  68; 6HR MAX TEMP:  84;

CENTER         FAIR      68  65  90 CALM      30.02S
6HR MIN TEMP:  68; 6HR MAX TEMP:  84;

NACOGDOCHES    FAIR      66  64  94 CALM      30.01F
6HR MIN TEMP:  66; 6HR MAX TEMP:  84;

LUFKIN         FAIR      71  64  78 E3        30.00F
6HR MIN TEMP:  71; 6HR MAX TEMP:  86;

$$

SUPPLEMENTAL OBSERVATIONS (CENTRAL)

CITY           SKY/WX    TMP DP  RH WIND       PRES   REMARKS
CADDO GRASSLND   N/A    N/A N/A N/A S5          N/A
PAT MAYSE LAKE   N/A     73  64  73 E7          N/A
MCGREGOR         N/A     75  59  57 S6          N/A
$$

SUPPLEMENTAL OBSERVATIONS (WEST)

CITY           SKY/WX    TMP DP  RH WIND       PRES   REMARKS
LBJ GRASSLAND    N/A    N/A N/A N/A SE6         N/A
HAMBY            N/A     81  59  47 SE12        N/A
IVIE RESERVOIR   N/A     77  59  53 SE6         N/A
COLORADO BEND    N/A     79  55  44 SW9         N/A
$$

SUPPLEMENTAL OBSERVATIONS (EAST)

CITY           SKY/WX    TMP DP  RH WIND       PRES   REMARKS



USA.gov is the U.S. government's official web portal to all federal, state and local government web resources and services.